[[{"header":{"parameterUnit":"m.s-1","parameterCategory":1,"la1":30.2991,"la2":30.254,"lo1":-89.0895,"lo2":-89.0444,"dy":0.0017,"dx":0.0017,"nx":28,"ny":28,"refTime":"2024-07-20T09:00:00:Z","depth":0,"parameterNumber":2,"parameterNumberName":"U-component_of_WINDS"},"data":[0,0,0,0,0,0,0,0,0,0,0,0,0,0,0,0,0,0,0,0,0,0,0,0,0,0,0,0,0,0,0,0,0,0,0,0,0,0,0,0,0,0,0,0,0,0,0,0,0,0,0,0,0,0,0,0,0,0,-0.9558,-0.9558,0,-0.9593,-0.9594,-0.9594,-0.9612,-0.9612,-0.9612,-0.9612,-0.965,-0.9651,-0.9652,0,0,0,0,0,0,0,0,0,0,0,0,0,-0.9507,-0.9508,-0.9558,-0.9558,-0.9558,-0.9593,-0.9594,-0.9594,-0.9612,-0.9612,-0.9612,-0.9612,-0.9649,-0.9651,-0.9652,0,0,0,0,0,0,0,0,0,0,0,0,0,-0.9534,-0.9508,-0.9557,-0.9571,-0.9573,-0.9593,-0.9594,-0.9594,-0.9612,-0.9612,-0.9612,-0.9612,-0.9649,-0.965,-0.9652,-0.9661,0,0,-0.9657,-0.9657,0,0,0,0,0,0,0,0,-0.9533,-0.9536,-0.9569,-0.957,-0.9572,-0.9598,-0.959,-0.9617,-0.9612,-0.9597,-0.9612,-0.9612,-0.9633,-0.9635,-0.9642,-0.9663,-0.9665,-0.9657,-0.9658,-0.9658,-0.9659,0,0,0,0,0,0,0,-0.9531,-0.9535,-0.9572,-0.9569,-0.9571,-0.9577,-0.958,-0.9595,-0.9614,-0.9598,-0.96,-0.9604,-0.9634,-0.9641,-0.9643,-0.9665,-0.9657,-0.9658,-0.9659,-0.966,-0.9697,-0.9697,0,0,0,0,0,0,-0.9526,-0.9533,-0.9571,-0.9573,-0.9552,-0.9577,-0.9582,-0.959,-0.9614,-0.9618,-0.9604,-0.9604,-0.9638,-0.9641,-0.9645,-0.9658,-0.9658,-0.966,-0.9661,-0.9697,-0.9697,-0.9697,0,0,0,0,0,0,-0.9525,-0.953,-0.9569,-0.9553,-0.9559,-0.9578,-0.9587,-0.9591,-0.9598,-0.9618,-0.9622,-0.9607,-0.9638,-0.9642,-0.9657,-0.9659,-0.966,-0.9662,-0.9696,-0.9697,-0.9697,-0.9683,0,0,0,0,0,0,-0.9524,-0.9529,-0.9532,-0.9553,-0.956,-0.958,-0.9587,-0.9591,-0.96,-0.9601,-0.9623,-0.9626,-0.9639,-0.9655,-0.9659,-0.9661,-0.9663,-0.9696,-0.9696,-0.9697,-0.9684,-0.9683,-0.9683,0,0,0,0,0,-0.9522,-0.9527,-0.9532,-0.9537,-0.9564,-0.958,-0.9584,-0.9598,-0.96,-0.9604,-0.9617,-0.9625,-0.9658,-0.9656,-0.9661,-0.9664,-0.9696,-0.9696,-0.9697,-0.9684,-0.9683,-0.9683,0,0,0,0,0,0,-0.9506,-0.953,-0.9536,-0.9548,-0.9562,-0.9583,-0.9588,-0.9596,-0.961,-0.9611,-0.9628,-0.9633,-0.9646,-0.9656,-0.9653,-0.9675,-0.9678,-0.9679,-0.9667,-0.9667,-0.9666,-0.9663,-0.9664,0,0,0,0,0,-0.9504,-0.9515,-0.9536,-0.9545,-0.9551,-0.9569,-0.9576,-0.9586,-0.9601,-0.9607,-0.9622,-0.9637,-0.965,-0.9659,-0.9673,-0.9686,-0.9691,-0.969,-0.9689,-0.9689,-0.969,-0.9698,-0.9698,-0.9697,-0.9697,-0.9697,0,0,-0.95,-0.9515,-0.9521,-0.9542,-0.9554,-0.9565,-0.9573,-0.9585,-0.9594,-0.9609,-0.9624,-0.9635,-0.9653,-0.9667,-0.9674,-0.9676,-0.9691,-0.9689,-0.9688,-0.969,-0.9698,-0.9698,-0.9698,-0.9697,-0.9697,-0.9697,0,0,-0.9499,-0.9511,-0.952,-0.9531,-0.9549,-0.9561,-0.9563,-0.9583,-0.9591,-0.9606,-0.9618,-0.9629,-0.9652,-0.9665,-0.9674,-0.9678,-0.9686,-0.9682,-0.9679,-0.9687,-0.9687,-0.9687,-0.9689,-0.9689,-0.9683,-0.9683,-0.9683,0,-0.9492,-0.9509,-0.9523,-0.9535,-0.9544,-0.9558,-0.9567,-0.9578,-0.96,-0.9606,-0.9609,-0.9638,-0.9651,-0.9669,-0.967,-0.9677,-0.968,-0.968,-0.9685,-0.9686,-0.9686,-0.9688,-0.9689,-0.9682,-0.9682,-0.9682,-0.9682,0,-0.95,-0.9512,-0.9517,-0.9537,-0.9547,-0.9558,-0.9574,-0.9583,-0.9591,-0.9603,-0.9619,-0.9635,-0.9652,-0.9657,-0.9666,-0.9676,-0.9677,-0.9682,-0.9686,-0.9685,-0.9688,-0.9689,-0.9681,-0.9682,-0.9682,-0.9682,0,0,-0.949,-0.9518,-0.9519,-0.9529,-0.955,-0.956,-0.9571,-0.9588,-0.9595,-0.961,-0.962,-0.964,-0.9645,-0.9656,-0.9666,-0.9673,-0.9676,-0.9678,-0.9678,-0.9677,-0.9689,-0.9685,-0.9685,-0.9682,-0.9682,-0.9682,-0.9687,0,-0.9491,-0.9512,-0.9525,-0.9541,-0.9552,-0.9566,-0.9576,-0.959,-0.9602,-0.9614,-0.9627,-0.964,-0.9646,-0.9653,-0.966,-0.9674,-0.9679,-0.9674,-0.9692,-0.9693,-0.9687,-0.9687,-0.9682,-0.9687,-0.9688,-0.9689,-0.9689,0,-0.9496,-0.951,-0.9526,-0.9546,-0.9552,-0.956,-0.9577,-0.9589,-0.9606,-0.9614,-0.9626,-0.9636,-0.965,-0.9653,-0.9672,-0.9668,-0.9677,-0.9685,-0.9686,-0.9688,-0.9691,-0.9689,-0.9688,-0.9689,-0.969,-0.969,-0.969,0,-0.9487,-0.951,-0.9523,-0.9531,-0.9554,-0.956,-0.9571,-0.9588,-0.9597,-0.9612,-0.9619,-0.9635,-0.9644,-0.9657,-0.9673,-0.9673,-0.9691,-0.9695,-0.9698,-0.9698,-0.9701,-0.9701,-0.9702,-0.9706,-0.9706,-0.9706,-0.9706,0,-0.9488,-0.9497,-0.9519,-0.9527,-0.9539,-0.9555,-0.9566,-0.9577,-0.9592,-0.9603,-0.9616,-0.9627,-0.9646,-0.9659,-0.9671,-0.9686,-0.969,-0.9697,-0.97,-0.9696,-0.9695,-0.9702,-0.9702,-0.9706,-0.9706,-0.9706,-0.9706,0,-0.948,-0.9495,-0.951,-0.9531,-0.9537,-0.9544,-0.9563,-0.9572,-0.9584,-0.9598,-0.9602,-0.9621,-0.9637,-0.9654,-0.9676,-0.9684,-0.9698,-0.9702,-0.9692,-0.9694,-0.9697,-0.9696,-0.9702,-0.9704,-0.9707,-0.9707,-0.9707,0,-0.9479,-0.9487,-0.9509,-0.9517,-0.9527,-0.954,-0.9549,-0.9566,-0.9575,-0.9596,-0.9602,-0.9619,-0.9633,-0.9658,-0.9675,-0.9692,-0.9697,-0.9698,-0.9699,-0.9695,-0.9697,-0.9697,-0.9698,-0.9697,-0.9697,-0.9697,-0.9697,0,-0.9477,-0.9484,-0.9497,-0.9513,-0.9524,-0.9538,-0.9552,-0.9558,-0.9577,-0.9587,-0.9604,-0.9615,-0.9637,-0.9654,-0.9673,-0.9684,-0.9694,-0.9696,-0.9698,-0.9694,-0.9687,-0.9691,-0.9691,-0.9696,-0.9696,-0.9696,-0.9696,-0.9696,-0.9473,-0.948,-0.9497,-0.9512,-0.9524,-0.9537,-0.9546,-0.956,-0.9573,-0.9592,-0.9601,-0.9618,-0.9635,-0.9662,-0.9673,-0.9687,-0.969,-0.9692,-0.9693,-0.9693,-0.9692,-0.9685,-0.969,-0.969,-0.969,-0.9691,-0.9691,0,-0.9471,-0.9483,-0.9496,-0.9515,-0.9527,-0.9534,-0.955,-0.956,-0.9574,-0.9589,-0.9603,-0.9622,-0.9639,-0.9657,-0.9675,-0.9682,-0.9687,-0.9686,-0.9686,-0.9689,-0.9689,-0.9685,-0.9682,-0.9682,-0.9682,-0.9682,-0.9682,-0.9682,-0.9472,-0.9485,-0.9494,-0.9515,-0.9526,-0.9542,-0.9551,-0.9563,-0.9576,-0.9596,-0.961,-0.9621,-0.9638,-0.9657,-0.9673,-0.9678,-0.9684,-0.9682,-0.9689,-0.9688,-0.9689,-0.9689,-0.9686,-0.9684,-0.9684,-0.9688,-0.9688,-0.9688]},{"header":{"parameterUnit":"m.s-1","parameterCategory":1,"la1":30.2991,"la2":30.254,"lo1":-89.0895,"lo2":-89.0444,"dy":0.0017,"dx":0.0017,"nx":28,"ny":28,"refTime":"2024-07-20T09:00:00:Z","depth":0,"parameterNumber":3,"parameterNumberName":"V-component_of_WINDS"},"data":[0,0,0,0,0,0,0,0,0,0,0,0,0,0,0,0,0,0,0,0,0,0,0,0,0,0,0,0,0,0,0,0,0,0,0,0,0,0,0,0,0,0,0,0,0,0,0,0,0,0,0,0,0,0,0,0,0,0,4.664,4.6641,0,4.6749,4.675,4.6752,4.6742,4.674,4.6739,4.6737,4.6844,4.6848,4.6853,0,0,0,0,0,0,0,0,0,0,0,0,0,4.6416,4.642,4.6639,4.6641,4.6642,4.6749,4.675,4.6752,4.6742,4.674,4.6738,4.6736,4.6843,4.6848,4.6853,0,0,0,0,0,0,0,0,0,0,0,0,0,4.6518,4.6421,4.6639,4.665,4.6653,4.6749,4.6751,4.6752,4.6743,4.674,4.6738,4.6736,4.6841,4.6847,4.6854,4.6944,0,0,4.6874,4.6877,0,0,0,0,0,0,0,0,4.6512,4.6526,4.6647,4.665,4.6652,4.673,4.6711,4.6817,4.6743,4.6708,4.6737,4.6734,4.6808,4.6817,4.6843,4.6949,4.6954,4.6875,4.6879,4.6881,4.6883,0,0,0,0,0,0,0,4.6505,4.6521,4.6683,4.6649,4.6652,4.6648,4.666,4.6731,4.677,4.6711,4.6711,4.6724,4.6808,4.6836,4.6845,4.6955,4.6874,4.688,4.6884,4.6887,4.7138,4.7141,0,0,0,0,0,0,4.6496,4.6515,4.6679,4.6686,4.6575,4.6654,4.6667,4.6707,4.677,4.6777,4.6726,4.6723,4.6826,4.6837,4.6849,4.6956,4.6881,4.6888,4.6891,4.7136,4.7139,4.7142,0,0,0,0,0,0,4.6491,4.6511,4.6675,4.6601,4.6621,4.6661,4.6706,4.6711,4.6739,4.6781,4.6788,4.6748,4.6825,4.684,4.692,4.696,4.6891,4.6896,4.7132,4.7137,4.714,4.7173,0,0,0,0,0,0,4.6485,4.6509,4.6545,4.6602,4.6625,4.6746,4.6708,4.6715,4.6751,4.6748,4.6803,4.681,4.6824,4.6911,4.6927,4.6968,4.6902,4.7129,4.7134,4.7139,4.7169,4.7178,4.7186,0,0,0,0,0,4.6477,4.655,4.6547,4.6567,4.6672,4.6749,4.6762,4.6778,4.6754,4.6789,4.6816,4.6808,4.6954,4.6919,4.6937,4.6981,4.7127,4.7133,4.7139,4.7165,4.7176,4.7186,0,0,0,0,0,0,4.6495,4.6557,4.6555,4.6649,4.6694,4.6747,4.6792,4.679,4.6842,4.6837,4.6854,4.6866,4.6947,4.6972,4.6932,4.707,4.7036,4.7046,4.705,4.7061,4.7069,4.706,4.6907,0,0,0,0,0,4.6511,4.657,4.662,4.6698,4.6721,4.6753,4.6787,4.6796,4.6842,4.6861,4.6894,4.6937,4.6993,4.7029,4.7082,4.7173,4.7183,4.7212,4.722,4.7227,4.7235,4.7282,4.7294,4.7162,4.7162,4.7162,0,0,4.6542,4.6583,4.6619,4.6702,4.6738,4.6797,4.6769,4.6832,4.6875,4.687,4.6947,4.6974,4.7023,4.7109,4.7148,4.7132,4.7274,4.7235,4.724,4.7244,4.7289,4.7302,4.7313,4.7166,4.7166,4.7165,0,0,4.6629,4.6668,4.6735,4.6772,4.6827,4.6848,4.6864,4.6918,4.6935,4.7014,4.701,4.7061,4.7157,4.7191,4.7221,4.7321,4.7313,4.7338,4.7381,4.7427,4.7437,4.7446,4.7478,4.749,4.7346,4.7346,4.7346,0,4.666,4.675,4.6769,4.6833,4.6869,4.6868,4.6935,4.6969,4.7038,4.7062,4.7044,4.7163,4.7197,4.7289,4.7313,4.7339,4.7355,4.733,4.7434,4.7444,4.7452,4.7483,4.7496,4.7348,4.7348,4.7348,4.7347,0,4.6784,4.6847,4.6894,4.6962,4.7003,4.7068,4.7095,4.7134,4.7139,4.7161,4.724,4.7281,4.7341,4.7364,4.737,4.7457,4.7445,4.7431,4.7397,4.7467,4.7496,4.7508,4.7351,4.7351,4.735,4.7349,0,0,4.6884,4.6962,4.6979,4.7008,4.7069,4.7116,4.7181,4.7241,4.7273,4.7321,4.7372,4.7454,4.744,4.7475,4.7484,4.7525,4.7597,4.7505,4.7506,4.7518,4.7691,4.7699,4.7713,4.7594,4.7596,4.7598,4.7686,0,4.6974,4.709,4.7108,4.7208,4.7264,4.7265,4.732,4.7362,4.7384,4.7433,4.7457,4.7513,4.7493,4.7513,4.7554,4.7579,4.7631,4.7574,4.7639,4.7641,4.7623,4.7728,4.7738,4.7818,4.7698,4.77,4.7701,0,4.7095,4.7146,4.7252,4.7303,4.7328,4.7377,4.7433,4.7481,4.7528,4.7541,4.7579,4.7584,4.7648,4.7614,4.77,4.7661,4.7689,4.7705,4.7709,4.7713,4.7673,4.7732,4.7845,4.7856,4.772,4.7718,4.7717,0,4.7153,4.7249,4.7324,4.735,4.7413,4.7447,4.7474,4.7519,4.7553,4.7602,4.7624,4.7679,4.7708,4.775,4.7768,4.7742,4.7852,4.782,4.7862,4.7862,4.7883,4.7881,4.7998,4.7907,4.7906,4.7906,4.7906,0,4.7249,4.7313,4.7351,4.7396,4.7467,4.7487,4.7556,4.7582,4.7622,4.7671,4.7675,4.772,4.7744,4.7792,4.7807,4.7874,4.7888,4.7898,4.7901,4.7896,4.7895,4.7913,4.7906,4.7909,4.7909,4.7908,4.7907,0,4.7325,4.7353,4.7434,4.7487,4.7502,4.7551,4.7595,4.7639,4.7661,4.7723,4.7738,4.7773,4.783,4.7853,4.7923,4.7933,4.8009,4.8009,4.7994,4.7994,4.8033,4.8028,4.8164,4.8181,4.8081,4.8082,4.8082,0,4.7383,4.7433,4.7491,4.7525,4.7553,4.7608,4.7644,4.7665,4.7702,4.7758,4.7794,4.7851,4.7898,4.7989,4.8018,4.8071,4.807,4.8114,4.8078,4.8071,4.8067,4.8062,4.8066,4.812,4.8121,4.8121,4.8122,0,4.7483,4.7494,4.7546,4.7603,4.7645,4.769,4.7734,4.7761,4.7789,4.783,4.7889,4.7925,4.7997,4.8052,4.8107,4.8133,4.8131,4.8134,4.8146,4.814,4.8128,4.8131,4.8008,4.813,4.8129,4.8129,4.8128,4.8128,4.755,4.7592,4.764,4.7697,4.7732,4.7773,4.7816,4.7844,4.7894,4.7954,4.7964,4.8026,4.807,4.8143,4.8171,4.8218,4.8207,4.8225,4.8229,4.8232,4.8233,4.8123,4.8229,4.8228,4.8228,4.8228,4.8228,0,4.7646,4.7677,4.773,4.7791,4.7835,4.7833,4.7881,4.7917,4.7973,4.8014,4.8061,4.8127,4.8181,4.8215,4.8269,4.83,4.8301,4.8313,4.831,4.8315,4.8242,4.8225,4.8312,4.8312,4.8312,4.8312,4.8312,4.8312,4.7702,4.7773,4.779,4.7878,4.7908,4.797,4.7997,4.8034,4.8067,4.8141,4.8187,4.821,4.8247,4.8304,4.8352,4.8361,4.8379,4.8392,4.8399,4.8329,4.8321,4.8312,4.8296,4.8397,4.8397,4.8468,4.8469,4.8469]}]]